Time,TemperatureF,DewpointF,PressureIn,WindDirection,WindDirectionDegrees,WindSpeedMPH,WindSpeedGustMPH,Humidity,HourlyPrecipIn,Conditions,Clouds,dailyrainin,SolarRadiationWatts/m^2,SoftwareType,DateUTC
2013-12-02 00:01:00,43.0,25.0,-100.00,NW,310,4.0,12.0,48,0.00,,,0.00,0.000000,,2013-12-02 07:01:00,
2013-12-02 00:12:00,43.0,25.0,-100.00,NW,310,4.0,12.0,48,0.00,,,0.00,0.000000,,2013-12-02 07:12:00,
2013-12-02 00:42:00,44.0,26.0,-100.00,West,275,4.0,8.0,48,0.00,,,-99.99,0.000000,,2013-12-02 07:42:00,
2013-12-02 00:52:00,44.0,26.0,-100.00,West,275,4.0,8.0,48,0.00,,,-99.99,0.000000,,2013-12-02 07:52:00,
2013-12-02 01:01:00,44.0,26.0,-100.00,West,275,4.0,8.0,48,0.00,,,-99.99,0.000000,,2013-12-02 08:01:00,
2013-12-02 01:12:00,44.0,26.0,-100.00,West,275,4.0,8.0,48,0.00,,,-99.99,0.000000,,2013-12-02 08:12:00,
2013-12-02 01:42:00,39.0,25.0,-100.00,NW,312,1.0,8.0,57,0.00,,,0.00,0.000000,,2013-12-02 08:42:00,
2013-12-02 01:52:00,39.0,25.0,-100.00,NW,312,1.0,8.0,57,0.00,,,0.00,0.000000,,2013-12-02 08:52:00,
2013-12-02 02:02:00,39.0,25.0,-100.00,NW,312,1.0,8.0,57,0.00,,,0.00,0.000000,,2013-12-02 09:02:00,
2013-12-02 02:11:00,39.0,25.0,-100.00,NW,312,1.0,8.0,57,0.00,,,0.00,0.000000,,2013-12-02 09:11:00,
2013-12-02 03:42:00,44.0,25.0,-100.00,WSW,257,7.0,15.0,46,-99.99,,,0.00,0.000000,,2013-12-02 10:42:00,
2013-12-02 03:52:00,44.0,25.0,-100.00,WSW,257,7.0,15.0,46,-99.99,,,0.00,0.000000,,2013-12-02 10:52:00,
2013-12-02 04:02:00,44.0,25.0,-100.00,WSW,257,7.0,15.0,46,-99.99,,,0.00,0.000000,,2013-12-02 11:02:00,
2013-12-02 04:12:00,44.0,25.0,-100.00,WSW,257,7.0,15.0,46,-99.99,,,0.00,0.000000,,2013-12-02 11:12:00,
2013-12-02 04:42:00,45.0,24.0,-100.00,West,262,10.0,17.0,43,0.00,,,0.00,0.000000,,2013-12-02 11:42:00,
2013-12-02 04:53:00,45.0,24.0,-100.00,West,262,10.0,17.0,43,0.00,,,0.00,0.000000,,2013-12-02 11:53:00,
2013-12-02 05:02:00,45.0,24.0,-100.00,West,262,10.0,17.0,43,0.00,,,0.00,0.000000,,2013-12-02 12:02:00,
2013-12-02 05:12:00,45.0,24.0,-100.00,West,262,10.0,17.0,43,0.00,,,0.00,0.000000,,2013-12-02 12:12:00,
2013-12-02 05:42:00,46.0,25.0,-100.00,WSW,247,11.0,19.0,44,0.00,,,0.00,0.000000,,2013-12-02 12:42:00,
2013-12-02 05:52:00,46.0,25.0,-100.00,WSW,247,11.0,19.0,44,0.00,,,0.00,0.000000,,2013-12-02 12:52:00,
2013-12-02 06:01:00,46.0,25.0,-100.00,WSW,247,11.0,19.0,44,0.00,,,0.00,0.000000,,2013-12-02 13:01:00,
2013-12-02 06:12:00,46.0,25.0,-100.00,WSW,247,11.0,19.0,44,0.00,,,0.00,0.000000,,2013-12-02 13:12:00,
2013-12-02 06:42:00,43.0,25.0,-100.00,WNW,291,4.0,16.0,49,0.00,,,0.00,0.000000,,2013-12-02 13:42:00,
2013-12-02 06:52:00,43.0,25.0,-100.00,WNW,291,4.0,16.0,49,0.00,,,0.00,0.000000,,2013-12-02 13:52:00,
2013-12-02 07:02:00,43.0,25.0,-100.00,WNW,291,4.0,16.0,49,0.00,,,0.00,0.000000,,2013-12-02 14:02:00,
2013-12-02 07:11:00,43.0,25.0,-100.00,WNW,291,4.0,16.0,49,0.00,,,0.00,0.000000,,2013-12-02 14:11:00,
2013-12-02 07:43:00,42.0,27.0,-100.00,NW,325,8.0,12.0,55,0.00,,,0.00,1.000000,,2013-12-02 14:43:00,
2013-12-02 07:52:00,42.0,27.0,-100.00,NW,325,8.0,12.0,55,0.00,,,0.00,1.000000,,2013-12-02 14:52:00,
2013-12-02 08:02:00,42.0,27.0,-100.00,NW,325,8.0,12.0,55,0.00,,,0.00,1.000000,,2013-12-02 15:02:00,
2013-12-02 08:12:00,42.0,27.0,-100.00,NW,325,8.0,12.0,55,0.00,,,0.00,1.000000,,2013-12-02 15:12:00,
2013-12-02 08:43:00,41.0,27.0,-100.00,WNW,289,2.0,11.0,58,0.00,,,0.00,34.000000,,2013-12-02 15:43:00,
2013-12-02 08:54:00,41.0,27.0,-100.00,WNW,289,2.0,11.0,58,0.00,,,0.00,34.000000,,2013-12-02 15:54:00,
2013-12-02 09:03:00,41.0,27.0,-100.00,WNW,289,2.0,11.0,58,0.00,,,0.00,34.000000,,2013-12-02 16:03:00,
2013-12-02 09:13:00,41.0,27.0,-100.00,WNW,289,2.0,11.0,58,0.00,,,0.00,34.000000,,2013-12-02 16:13:00,
2013-12-02 09:43:00,42.0,29.0,-100.00,ENE,66,1.0,7.0,60,0.00,,,0.00,83.000000,,2013-12-02 16:43:00,
2013-12-02 09:53:00,42.0,29.0,-100.00,ENE,66,1.0,7.0,60,0.00,,,0.00,83.000000,,2013-12-02 16:53:00,
2013-12-02 10:02:00,42.0,29.0,-100.00,ENE,66,1.0,7.0,60,0.00,,,0.00,83.000000,,2013-12-02 17:02:00,
2013-12-02 10:12:00,42.0,29.0,-100.00,ENE,66,1.0,7.0,60,0.00,,,0.00,83.000000,,2013-12-02 17:12:00,
2013-12-02 10:42:00,46.0,28.0,-100.00,SE,140,4.0,8.0,50,0.00,,,0.00,193.000000,,2013-12-02 17:42:00,
2013-12-02 10:53:00,46.0,28.0,-100.00,SE,140,4.0,8.0,50,0.00,,,0.00,193.000000,,2013-12-02 17:53:00,
2013-12-02 11:02:00,46.0,28.0,-100.00,SE,140,4.0,8.0,50,0.00,,,0.00,193.000000,,2013-12-02 18:02:00,
2013-12-02 11:12:00,46.0,28.0,-100.00,SE,140,4.0,8.0,50,0.00,,,0.00,193.000000,,2013-12-02 18:12:00,
2013-12-02 11:42:00,45.0,28.0,-100.00,SSE,164,5.0,10.0,52,0.00,,,0.00,195.000000,,2013-12-02 18:42:00,
2013-12-02 11:53:00,45.0,28.0,-100.00,SSE,164,5.0,10.0,52,0.00,,,0.00,195.000000,,2013-12-02 18:53:00,
2013-12-02 12:02:00,45.0,28.0,-100.00,SSE,164,5.0,10.0,52,0.00,,,0.00,195.000000,,2013-12-02 19:02:00,
2013-12-02 12:12:00,45.0,28.0,-100.00,SSE,164,5.0,10.0,52,0.00,,,0.00,195.000000,,2013-12-02 19:12:00,
2013-12-02 12:42:00,48.0,29.0,-100.00,SSE,155,6.0,11.0,47,0.00,,,0.00,311.000000,,2013-12-02 19:42:00,
2013-12-02 12:52:00,48.0,29.0,-100.00,SSE,155,6.0,11.0,47,0.00,,,0.00,311.000000,,2013-12-02 19:52:00,
2013-12-02 13:02:00,48.0,29.0,-100.00,SSE,155,6.0,11.0,47,0.00,,,0.00,311.000000,,2013-12-02 20:02:00,
2013-12-02 13:11:00,48.0,29.0,-100.00,SSE,155,6.0,11.0,47,0.00,,,0.00,311.000000,,2013-12-02 20:11:00,
2013-12-02 13:42:00,49.0,29.0,-100.00,ESE,105,6.0,11.0,46,0.00,,,0.00,381.000000,,2013-12-02 20:42:00,
2013-12-02 13:52:00,49.0,29.0,-100.00,ESE,105,6.0,11.0,46,0.00,,,0.00,381.000000,,2013-12-02 20:52:00,
2013-12-02 14:02:00,49.0,29.0,-100.00,ESE,105,6.0,11.0,46,0.00,,,0.00,381.000000,,2013-12-02 21:02:00,
2013-12-02 14:11:00,49.0,29.0,-100.00,ESE,105,6.0,11.0,46,0.00,,,0.00,381.000000,,2013-12-02 21:11:00,
2013-12-02 14:43:00,50.0,30.0,-100.00,East,90,3.0,9.0,46,0.00,,,0.00,182.000000,,2013-12-02 21:43:00,
2013-12-02 14:53:00,50.0,30.0,-100.00,East,90,3.0,9.0,46,0.00,,,0.00,182.000000,,2013-12-02 21:53:00,
2013-12-02 15:03:00,50.0,30.0,-100.00,East,90,3.0,9.0,46,0.00,,,0.00,182.000000,,2013-12-02 22:03:00,
2013-12-02 15:13:00,50.0,30.0,-100.00,East,90,3.0,9.0,46,0.00,,,0.00,182.000000,,2013-12-02 22:13:00,
2013-12-02 15:43:00,46.0,28.0,-100.00,ESE,103,4.0,7.0,50,0.00,,,0.00,158.000000,,2013-12-02 22:43:00,
2013-12-02 15:53:00,46.0,28.0,-100.00,ESE,103,4.0,7.0,50,0.00,,,0.00,158.000000,,2013-12-02 22:53:00,
2013-12-02 16:02:00,46.0,28.0,-100.00,ESE,103,4.0,7.0,50,0.00,,,0.00,158.000000,,2013-12-02 23:02:00,
2013-12-02 16:12:00,46.0,28.0,-100.00,ESE,103,4.0,7.0,50,0.00,,,0.00,158.000000,,2013-12-02 23:12:00,
2013-12-02 17:11:00,37.0,28.0,-100.00,NW,314,5.0,6.0,70,0.00,,,0.00,15.000000,,2013-12-03 00:11:00,
2013-12-02 17:42:00,35.0,28.0,-100.00,NNW,328,1.0,8.0,74,0.00,,,0.00,0.000000,,2013-12-03 00:42:00,
2013-12-02 18:11:00,35.0,28.0,-100.00,NNW,328,1.0,8.0,74,0.00,,,0.00,0.000000,,2013-12-03 01:11:00,
2013-12-02 18:42:00,35.0,29.0,-100.00,NW,321,5.0,7.0,78,0.00,,,0.00,0.000000,,2013-12-03 01:42:00,
2013-12-02 18:52:00,35.0,29.0,-100.00,NW,321,5.0,7.0,78,0.00,,,0.00,0.000000,,2013-12-03 01:52:00,
2013-12-02 19:02:00,35.0,29.0,-100.00,NW,321,5.0,7.0,78,0.00,,,0.00,0.000000,,2013-12-03 02:02:00,
2013-12-02 19:11:00,35.0,29.0,-100.00,NW,321,5.0,7.0,78,0.00,,,0.00,0.000000,,2013-12-03 02:11:00,
2013-12-02 19:42:00,35.0,30.0,-100.00,NNW,327,4.0,9.0,81,0.00,,,0.00,0.000000,,2013-12-03 02:42:00,
2013-12-02 19:52:00,35.0,30.0,-100.00,NNW,327,4.0,9.0,81,0.00,,,0.00,0.000000,,2013-12-03 02:52:00,
2013-12-02 20:02:00,35.0,30.0,-100.00,NNW,327,4.0,9.0,81,0.00,,,0.00,0.000000,,2013-12-03 03:02:00,
2013-12-02 20:11:00,35.0,30.0,-100.00,NNW,327,4.0,9.0,81,0.00,,,0.00,0.000000,,2013-12-03 03:11:00,
2013-12-02 20:43:00,35.0,31.0,-100.00,NW,320,5.0,6.0,85,0.00,,,0.00,0.000000,,2013-12-03 03:43:00,
2013-12-02 20:54:00,35.0,31.0,-100.00,NW,320,5.0,6.0,85,0.00,,,0.00,0.000000,,2013-12-03 03:54:00,
2013-12-02 21:03:00,35.0,31.0,-100.00,NW,320,5.0,6.0,85,0.00,,,0.00,0.000000,,2013-12-03 04:03:00,
2013-12-02 21:13:00,35.0,31.0,-100.00,NW,320,5.0,6.0,85,0.00,,,0.00,0.000000,,2013-12-03 04:13:00,
2013-12-02 21:43:00,38.0,34.0,-100.00,NNW,333,2.0,7.0,84,0.00,,,0.00,0.000000,,2013-12-03 04:43:00,
2013-12-02 21:52:00,38.0,34.0,-100.00,NNW,333,2.0,7.0,84,0.00,,,0.00,0.000000,,2013-12-03 04:52:00,
2013-12-02 22:02:00,38.0,34.0,-100.00,NNW,333,2.0,7.0,84,0.00,,,0.00,0.000000,,2013-12-03 05:02:00,
2013-12-02 22:12:00,38.0,34.0,-100.00,NNW,333,2.0,7.0,84,0.00,,,0.00,0.000000,,2013-12-03 05:12:00,
2013-12-02 22:43:00,36.0,33.0,-100.00,NE,51,5.0,10.0,89,0.00,,,0.00,0.000000,,2013-12-03 05:43:00,
2013-12-02 22:53:00,36.0,33.0,-100.00,NE,51,5.0,10.0,89,0.00,,,0.00,0.000000,,2013-12-03 05:53:00,
2013-12-02 23:02:00,36.0,33.0,-100.00,NE,51,5.0,10.0,89,0.00,,,0.00,0.000000,,2013-12-03 06:02:00,
2013-12-02 23:12:00,36.0,33.0,-100.00,NE,51,5.0,10.0,89,0.00,,,0.00,0.000000,,2013-12-03 06:12:00,
2013-12-02 23:42:00,33.0,32.0,-100.00,NNE,25,8.0,13.0,96,0.00,,,0.00,0.000000,,2013-12-03 06:42:00,
2013-12-02 23:53:00,33.0,32.0,-100.00,NNE,25,8.0,13.0,96,0.00,,,0.00,0.000000,,2013-12-03 06:53:00,